User: anonymous
Location: Maiden_LMO
(35.5760°N, 81.2120°W)
Time: 00:49:21
(UTC-04:00)
Language:

ADEOS II - Orbit

View from above orbital plane
View from above orbital plane
View from above satellite
View from above satellite

Ground track
Ground track

The orbit data is extracted from the following two-line orbital elements,

1 27597U 02056A   14231.12169068  .00000140  00000-0  74499-4 0  3724
2 27597 098.2759 235.6553 0002219 116.6115 284.9866 14.26839970608068
Epoch (UTC): 19 August 2014 02:55:14
Eccentricity: 0.0002219
inclination: 98.2759°
perigee height: 801 km
apogee height: 804 km
right ascension of ascending node: 235.6553°
argument of perigee: 116.6115°
revolutions per day: 14.26839970
mean anomaly at epoch: 284.9866°
orbit number at epoch: 60806

The dashed part of the orbit path shows where the satellite is in the earth's shadow,  

DLR